When you browse on this site, cookies collect data to enhance your experience and personalize the content and advertising you see.
Visit our Privacy Policy to learn more. By continuing to use the site, you agree to this use of cookies and data.
  • In Czech Republic
  • List of Countries
  • For 7 days
  • Water Temperature
  • Satellite Maps
  • Weather Map
  • Weather Widgets
  • user-avatar
    Login

    Hourly Weather Saurimo

    Today, 13 December, Thursday

    Time Temperature Precipitation Wind Pressure Humidity
    00:00 +20°C° 0 mm 1 mps 672 mmHg 98%
    01:00 +20°C° 0 mm 1 mps 672 mmHg 98%
    02:00 +17°C° 0.1 mm 0 mps 671 mmHg 98%
    03:00 +17°C° 0.1 mm 0 mps 671 mmHg 98%
    04:00 +17°C° 0.1 mm 0 mps 671 mmHg 98%
    05:00 +18°C° 0 mm 0 mps 672 mmHg 96%
    06:00 +19°C° 0 mm 0 mps 672 mmHg 94%
    07:00 +20°C° 0 mm 0 mps 673 mmHg 93%
    08:00 +24°C° 0.5 mm 1 mps 673 mmHg 86%
    09:00 +25°C° 0.5 mm 1 mps 673 mmHg 80%
    10:00 +27°C° 0.5 mm 1 mps 673 mmHg 74%
    11:00 +28°C° 0.7 mm 1 mps 672 mmHg 72%
    12:00 +28°C° 0.7 mm 1 mps 672 mmHg 69%
    13:00 +29°C° 0.7 mm 1 mps 672 mmHg 67%
    14:00 +28°C° 1.8 mm 1 mps 671 mmHg 73%
    15:00 +27°C° 1.8 mm 1 mps 670 mmHg 78%
    16:00 +24°C° 1.8 mm 0 mps 670 mmHg 84%
    17:00 +23°C° 1.5 mm 0 mps 670 mmHg 87%
    18:00 +21°C° 1.5 mm 0 mps 670 mmHg 89%
    19:00 +22°C° 1.5 mm 1 mps 670 mmHg 92%
    20:00 +21°C° 0.2 mm 1 mps 671 mmHg 92%
    21:00 +21°C° 0.2 mm 1 mps 671 mmHg 93%
    22:00 +21°C° 0.2 mm 1 mps 672 mmHg 93%
    23:00 +21°C° 0 mm 1 mps 672 mmHg 94%

    Tomorrow, 14 December, Friday

    Time Temperature Precipitation Wind Pressure Humidity
    00:00 +20°C° 0 mm 1 mps 671 mmHg 95%
    01:00 +20°C° 0 mm 1 mps 671 mmHg 95%
    02:00 +20°C° 0 mm 1 mps 671 mmHg 96%
    03:00 +19°C° 0 mm 1 mps 670 mmHg 96%
    04:00 +19°C° 0 mm 1 mps 670 mmHg 96%
    05:00 +18°C° 0 mm 0 mps 671 mmHg 95%
    06:00 +19°C° 0 mm 0 mps 671 mmHg 93%
    07:00 +20°C° 0 mm 0 mps 672 mmHg 92%
    08:00 +21°C° 0.7 mm 0 mps 672 mmHg 88%
    09:00 +23°C° 0.7 mm 0 mps 673 mmHg 85%
    10:00 +26°C° 0.7 mm 1 mps 673 mmHg 81%
    11:00 +27°C° 1 mm 1 mps 672 mmHg 79%
    12:00 +27°C° 1 mm 1 mps 672 mmHg 77%
    13:00 +27°C° 1 mm 1 mps 671 mmHg 75%
    14:00 +27°C° 1.1 mm 1 mps 671 mmHg 76%
    15:00 +27°C° 1.1 mm 1 mps 670 mmHg 77%
    16:00 +27°C° 1.1 mm 1 mps 670 mmHg 77%
    17:00 +25°C° 1.5 mm 1 mps 670 mmHg 83%
    18:00 +23°C° 1.5 mm 1 mps 671 mmHg 88%
    19:00 +22°C° 1.5 mm 1 mps 671 mmHg 93%
    20:00 +22°C° 0.4 mm 1 mps 671 mmHg 94%
    21:00 +21°C° 0.4 mm 1 mps 672 mmHg 95%
    22:00 +21°C° 0.4 mm 1 mps 672 mmHg 95%
    23:00 +21°C° 0.3 mm 1 mps 672 mmHg 96%

    Day after tomorrow, 15 December, Saturday

    Time Temperature Precipitation Wind Pressure Humidity
    00:00 +20°C° 0.3 mm 1 mps 671 mmHg 97%
    01:00 +20°C° 0.3 mm 1 mps 671 mmHg 97%
    02:00 +20°C° 0.3 mm 1 mps 671 mmHg 97%
    03:00 +20°C° 0.3 mm 1 mps 671 mmHg 98%
    04:00 +20°C° 0.3 mm 1 mps 671 mmHg 98%
    05:00 +20°C° 0.2 mm 1 mps 671 mmHg 97%
    06:00 +20°C° 0.2 mm 1 mps 672 mmHg 97%
    07:00 +21°C° 0.2 mm 1 mps 672 mmHg 96%
    08:00 +21°C° 0.6 mm 2 mps 672 mmHg 94%
    09:00 +23°C° 0.6 mm 2 mps 673 mmHg 92%
    10:00 +24°C° 0.6 mm 3 mps 673 mmHg 89%
    11:00 +24°C° 0.8 mm 3 mps 673 mmHg 87%
    12:00 +25°C° 0.8 mm 3 mps 672 mmHg 84%
    13:00 +26°C° 0.8 mm 4 mps 672 mmHg 81%
    14:00 +25°C° 0.6 mm 3 mps 671 mmHg 82%
    15:00 +25°C° 0.6 mm 3 mps 671 mmHg 83%
    16:00 +25°C° 0.6 mm 2 mps 671 mmHg 85%
    17:00 +24°C° 0.6 mm 2 mps 671 mmHg 88%
    18:00 +21°C° 0.6 mm 2 mps 671 mmHg 91%
    19:00 +21°C° 0.6 mm 1 mps 672 mmHg 94%
    20:00 +21°C° 0.1 mm 1 mps 672 mmHg 95%
    21:00 +21°C° 0.1 mm 1 mps 672 mmHg 95%
    22:00 +20°C° 0.1 mm 1 mps 673 mmHg 96%
    23:00 +20°C° 0.1 mm 1 mps 672 mmHg 96%

    16 December, Sunday

    Time Temperature Precipitation Wind Pressure Humidity
    00:00 +20°C° 0.1 mm 1 mps 672 mmHg 97%
    01:00 +20°C° 0.1 mm 1 mps 671 mmHg 97%
    02:00 +19°C° 0.1 mm 1 mps 671 mmHg 97%
    03:00 +19°C° 0.1 mm 1 mps 671 mmHg 97%
    04:00 +19°C° 0.1 mm 1 mps 671 mmHg 97%
    05:00 +19°C° 0.1 mm 1 mps 671 mmHg 97%
    06:00 +20°C° 0.1 mm 1 mps 672 mmHg 96%
    07:00 +20°C° 0.1 mm 1 mps 672 mmHg 95%
    08:00 +20°C° 0.2 mm 2 mps 673 mmHg 92%
    09:00 +21°C° 0.2 mm 2 mps 673 mmHg 89%
    10:00 +23°C° 0.2 mm 2 mps 673 mmHg 85%
    11:00 +24°C° 0.4 mm 2 mps 672 mmHg 84%
    12:00 +24°C° 0.4 mm 2 mps 672 mmHg 82%
    13:00 +25°C° 0.4 mm 3 mps 671 mmHg 81%
    14:00 +24°C° 0.3 mm 2 mps 671 mmHg 82%
    15:00 +24°C° 0.3 mm 2 mps 671 mmHg 83%
    16:00 +24°C° 0.3 mm 2 mps 670 mmHg 85%
    17:00 +23°C° 0.1 mm 2 mps 671 mmHg 88%
    18:00 +22°C° 0.1 mm 1 mps 671 mmHg 92%
    19:00 +21°C° 0.1 mm 1 mps 671 mmHg 95%
    20:00 +20°C° 0 mm 1 mps 671 mmHg 95%
    21:00 +20°C° 0 mm 1 mps 672 mmHg 95%
    22:00 +20°C° 0 mm 1 mps 672 mmHg 96%
    23:00 +19°C° 0 mm 1 mps 671 mmHg 96%

    17 December, Monday

    Time Temperature Precipitation Wind Pressure Humidity
    00:00 +19°C° 0 mm 1 mps 671 mmHg 96%
    01:00 +19°C° 0 mm 1 mps 670 mmHg 96%
    02:00 +19°C° 0 mm 1 mps 670 mmHg 96%
    03:00 +18°C° 0 mm 1 mps 670 mmHg 96%
    04:00 +18°C° 0 mm 1 mps 670 mmHg 96%
    05:00 +19°C° 0 mm 1 mps 671 mmHg 94%
    06:00 +20°C° 0 mm 1 mps 671 mmHg 92%
    07:00 +21°C° 0 mm 1 mps 672 mmHg 89%
    08:00 +23°C° 0.1 mm 1 mps 673 mmHg 81%
    09:00 +25°C° 0.1 mm 2 mps 673 mmHg 72%
    10:00 +27°C° 0.1 mm 2 mps 673 mmHg 64%
    11:00 +28°C° 0.4 mm 2 mps 672 mmHg 61%
    12:00 +29°C° 0.4 mm 3 mps 672 mmHg 59%
    13:00 +29°C° 0.4 mm 3 mps 671 mmHg 56%
    14:00 +29°C° 0.3 mm 3 mps 670 mmHg 62%
    15:00 +28°C° 0.3 mm 2 mps 670 mmHg 67%
    16:00 +27°C° 0.3 mm 2 mps 670 mmHg 72%
    17:00 +25°C° 0.4 mm 1 mps 670 mmHg 77%
    18:00 +24°C° 0.4 mm 1 mps 670 mmHg 82%
    19:00 +22°C° 0.4 mm 1 mps 670 mmHg 87%
    20:00 +21°C° 0.1 mm 1 mps 671 mmHg 88%
    21:00 +21°C° 0.1 mm 1 mps 671 mmHg 90%
    22:00 +20°C° 0.1 mm 1 mps 671 mmHg 91%
    23:00 +20°C° 0 mm 1 mps 670 mmHg 92%

    18 December, Tuesday

    Time Temperature Precipitation Wind Pressure Humidity
    00:00 +19°C° 0 mm 1 mps 670 mmHg 92%
    01:00 +19°C° 0 mm 1 mps 669 mmHg 93%
    02:00 +19°C° 0 mm 1 mps 669 mmHg 93%
    03:00 +19°C° 0 mm 1 mps 669 mmHg 94%
    04:00 +18°C° 0 mm 1 mps 669 mmHg 94%
    05:00 +19°C° 0 mm 1 mps 670 mmHg 92%
    06:00 +20°C° 0 mm 1 mps 671 mmHg 91%
    07:00 +21°C° 0 mm 1 mps 671 mmHg 89%
    08:00 +23°C° 0.2 mm 1 mps 672 mmHg 82%
    09:00 +25°C° 0.2 mm 2 mps 672 mmHg 76%
    10:00 +27°C° 0.2 mm 2 mps 672 mmHg 69%
    11:00 +27°C° 0.8 mm 3 mps 671 mmHg 70%
    12:00 +27°C° 0.8 mm 3 mps 670 mmHg 70%
    13:00 +28°C° 0.8 mm 3 mps 670 mmHg 70%
    14:00 +27°C° 1 mm 3 mps 669 mmHg 76%
    15:00 +26°C° 1 mm 3 mps 669 mmHg 81%
    16:00 +26°C° 1 mm 2 mps 669 mmHg 87%
    17:00 +24°C° 1 mm 2 mps 669 mmHg 89%
    18:00 +23°C° 1 mm 2 mps 669 mmHg 91%
    19:00 +20°C° 1 mm 2 mps 669 mmHg 94%
    20:00 +20°C° 0 mm 2 mps 669 mmHg 94%
    21:00 +20°C° 0 mm 2 mps 670 mmHg 93%
    22:00 +20°C° 0 mm 2 mps 670 mmHg 93%
    23:00 +20°C° 0.1 mm 2 mps 669 mmHg 93%
    Show more